Regional Weather Roundup
Issued by NWS

Home | Current Version | Previous Version | Text Only | Print | Product List | Glossary Off
Versions: 1 2 3 4 5 6 7 8 9 10 11 12 13 14 15 16 17 18 19 20 21 22 23 24 25 26 27 28 29 30 31 32 33 34 35 36 37 38 39 40 41 42 43 44 45 46 47 48 49 50

000
ASUS45 KBOI 270310
RWRID

IDAHO REGIONAL WEATHER ROUNDUP
NATIONAL WEATHER SERVICE BOISE ID
900 PM MDT SUN JUL 26 2015

NOTE: "FAIR" INDICATES FEW OR NO CLOUDS BELOW 12000 FEET
WITH NO SIGNIFICANT WEATHER AND/OR OBSTRUCTIONS TO VISIBILITY

IDZ012-014-270400-
SOUTHWEST IDAHO


CITY           SKY/WX    TMP DP  RH WIND       PRES   REMARKS
BOISE          MOCLDY    77  43  29 W9        29.83R
CALDWELL       MOCLDY    75  45  33 W12       29.86R
MOUNTAIN HOME  CLEAR     77  43  29 NW23      29.80R
$$

IDZ016-017-270400-
SOUTHCENTRAL IDAHO


CITY           SKY/WX    TMP DP  RH WIND       PRES   REMARKS
BURLEY         CLEAR     69  50  50 W7        29.81F
JEROME         CLEAR     74  43  32 SW7       29.83S
TWIN FALLS     CLEAR     76  43  30 W7        29.82S
$$

IDZ019>023-270400-
SOUTHEAST IDAHO


CITY           SKY/WX    TMP DP  RH WIND       PRES   REMARKS
IDAHO FALLS    CLEAR     80  42  25 S5        29.85F
POCATELLO      CLEAR     80  45  28 CALM      29.83F
REXBURG        CLEAR     78  41  26 S3        29.86F
$$

IDZ006-010-011-018-031-032-270400-
CENTRAL IDAHO MOUNTAINS


CITY           SKY/WX    TMP DP  RH WIND       PRES   REMARKS
MCCALL         MOCLDY    64  34  32 CALM      29.96S
HAILEY         PTCLDY    64  46  52 CALM      29.90F
STANLEY          N/A     65  35  33 NE3       30.00F
SALMON         CLOUDY    73  46  38 N9        29.82R
CHALLIS        CLOUDY    76  30  18 W12       29.87S
$$

IDZ002-004-006-007-026-270400-
NORTHERN IDAHO


CITY           SKY/WX    TMP DP  RH WIND       PRES   REMARKS
LEWISTON       PTCLDY    72  38  29 NW14      29.92R
LOWELL           N/A     69  54  58 CALM      29.92R
COEUR D`ALENE  PTCLDY    63  39  42 SW7       29.94R
MULLAN PASS    CLOUDY    50  36  58 VRB5      30.06S
$$


USA.gov is the U.S. government's official web portal to all federal, state and local government web resources and services.